Location: Newark
(45.5167°N, 11.1667°E)
Time: 21:01:30
(UTC+00:00)

Explorer 7 - Pass Details

Date: 20 December 2019
Orbit: 485 x 679 km, 50.3° (Epoch: 26 January)

Event Time Altitude Azimuth Distance (km) Brightness Sun altitude
Rises 10:37:38 0° 207° (SSW) 2,824 11.3 20.6°
Reaches altitude 10° 10:40:05 10° 196° (SSW) 1,960 11.1 20.7°
Maximum altitude 10:43:56 28° 137° (SE) 1,194 9.7 20.7°
Drops below altitude 10° 10:47:58 10° 79° (E) 2,062 9.8 20.8°
Sets 10:50:37 0° 68° (ENE) 3,001 10.4 20.9°
